"2016-07-16 00:00:00",1812889,5.645,71.64,4.483,0.526,19.98,107.1573,17.6,18.66,71.85,0,110.9,13.11,18.41,33.6
"2016-07-16 00:00:30",1812890,6.337,70.83,3.158,0.319,20.18,107.1573,17.6,18.66,71.89,0,110.9,13.1,18.41,32.8
"2016-07-16 00:01:00",1812891,5.992,65.45,3.358,0.974,20.11,107.1573,17.6,18.68,72.23,0,110.9,13.11,18.41,27.4
"2016-07-16 00:01:30",1812892,7.107,72.29,4.925,0.476,19.98,107.1573,17.6,18.66,71.85,0,110.9,13.11,18.41,34.3
"2016-07-16 00:02:00",1812893,5.717,77.78,2.668,0.305,20.04,107.1573,17.6,18.67,71.52,0,110.9,13.1,18.41,39.8
"2016-07-16 00:02:30",1812894,5.881,66.44,3.603,0.236,20.07,107.159,17.6,18.67,71.51,0,110.9,13.1,18.42,28.4
"2016-07-16 00:03:00",1812895,5.767,71.1,2.098,0.225,19.96,107.1615,17.61,18.67,71.49,0,110.9,13.1,18.42,33.1
"2016-07-16 00:03:30",1812896,5.905,74.3,2.926,0.2,20.08,107.1641,17.62,18.68,71.34,0,110.9,13.11,18.43,36.3
"2016-07-16 00:04:00",1812897,6.026,64.51,7.817,0.412,20.14,107.161,17.61,18.7,71.17,0,110.9,13.1,18.42,26.5
"2016-07-16 00:04:30",1812898,5.715,56.89,3.355,0.328,20.08,107.1584,17.6,18.68,71.1,0,110.9,13.11,18.41,18.9
"2016-07-16 00:05:00",1812899,6.284,60.75,6.681,0.523,20.23,107.1579,17.6,18.68,71.32,0,110.9,13.1,18.41,22.8
"2016-07-16 00:05:30",1812900,6.281,61.02,4.266,0.227,20.22,107.1579,17.6,18.69,71.62,0,110.9,13.1,18.41,23.0
"2016-07-16 00:06:00",1812901,5.901,67.25,8.74,0.517,20.19,107.159,17.6,18.69,71.68,0,110.9,13.1,18.42,29.2
"2016-07-16 00:06:30",1812902,5.653,75.28,2.662,0.239,20.09,107.1599,17.61,18.69,71.4,0,110.9,13.1,18.42,37.3
"2016-07-16 00:07:00",1812903,4.432,81,2.847,0.241,20.11,107.1638,17.62,18.67,71.08,0,110.9,13.1,18.43,43.0
"2016-07-16 00:07:30",1812904,5.531,73.55,3.798,0.618,20.04,107.1674,17.62,18.68,70.87,0,110.9,13.1,18.44,35.6
"2016-07-16 00:08:00",1812905,5.977,67.76,2.684,0.27,20.13,107.1711,17.63,18.7,70.73,0,110.9,13.1,18.45,29.8
"2016-07-16 00:08:30",1812906,5.436,70.2,6.338,0.789,20.26,107.1689,17.63,18.69,70.72,0,110.9,13.1,18.44,32.2
"2016-07-16 00:09:00",1812907,4.825,68.44,2.821,0.388,20.29,107.1641,17.62,18.68,70.66,0,110.9,13.1,18.43,30.4
"2016-07-16 00:09:30",1812908,6.43,56.67,2.908,0.49,20.18,107.1582,17.6,18.68,70.52,0,110.9,13.1,18.41,18.7
"2016-07-16 00:10:00",1812909,5.751,51.63,4.529,0.349,20.18,107.1573,17.6,18.67,70.38,0,110.9,13.1,18.41,13.6
"2016-07-16 00:10:30",1812910,6.147,48.09,6.513,0.377,20.2,107.1573,17.6,18.69,70.41,0,110.9,13.09,18.41,10.1
"2016-07-16 00:11:00",1812911,6.561,66.29,7.883,0.47,20.26,107.1573,17.6,18.68,70.53,0,110.9,13.1,18.41,28.3
"2016-07-16 00:11:30",1812912,6.476,58.31,4.065,0.389,20.14,107.1573,17.6,18.66,70.31,0,110.9,13.1,18.41,20.3
"2016-07-16 00:12:00",1812913,7.034,58.26,3.306,0.399,20.16,107.1573,17.6,18.65,70.17,0,110.9,13.1,18.41,20.3
"2016-07-16 00:12:30",1812914,6.577,55.39,3.2,0.584,20.18,107.1573,17.6,18.66,70.31,0,110.9,13.1,18.41,17.4
"2016-07-16 00:13:00",1812915,6.414,61.92,4.004,0.323,20.23,107.1573,17.6,18.65,70.37,0,110.9,13.1,18.41,23.9
"2016-07-16 00:13:30",1812916,6.347,55.32,6.049,0.595,20.15,107.1539,17.59,18.64,70.16,0,110.9,13.1,18.40,17.3
"2016-07-16 00:14:00",1812917,6.654,55.66,1.844,0.335,20.2,107.1396,17.55,18.63,70.24,0,110.9,13.1,18.37,17.7
"2016-07-16 00:14:30",1812918,6.976,54.28,3.586,0.28,20.41,107.1317,17.53,18.62,70.36,0,110.9,13.1,18.35,16.3
"2016-07-16 00:15:00",1812919,6.996,58.92,2.848,0.348,20.4,107.1253,17.52,18.62,70.37,0,110.9,13.1,18.33,20.9
"2016-07-16 00:15:30",1812920,7.623,55.13,2.233,0.312,20.3,107.1236,17.51,18.61,70.37,0,110.9,13.1,18.33,17.1
"2016-07-16 00:16:00",1812921,7.576,58.09,4.646,0.346,20.28,107.1236,17.51,18.6,70.37,0,110.9,13.1,18.33,20.1
"2016-07-16 00:16:30",1812922,6.307,54.64,1.945,0.489,20.27,107.1236,17.51,18.59,70.29,0,110.9,13.1,18.33,16.6
"2016-07-16 00:17:00",1812923,7.249,58.98,4.463,0.342,20.15,107.1236,17.51,18.58,70.11,0,110.9,13.1,18.33,21.0
"2016-07-16 00:17:30",1812924,6.894,61.76,4.551,0.472,20.21,107.1236,17.51,18.57,70.06,0,110.9,13.1,18.33,23.8
"2016-07-16 00:18:00",1812925,7.285,56.86,5.435,0.535,20.23,107.1236,17.51,18.56,70.31,0,110.9,13.1,18.33,18.9
"2016-07-16 00:18:30",1812926,6.625,56.43,3.727,0.646,20.25,107.1236,17.51,18.56,70.91,0,110.9,13.1,18.33,18.4
"2016-07-16 00:19:00",1812927,7.566,63.23,2.512,0.567,20.11,107.1227,17.51,18.55,70.9,0,110.9,13.1,18.32,25.2
"2016-07-16 00:19:30",1812928,6.252,65.16,3.942,0.365,20.15,107.1182,17.5,18.54,70.79,0,110.9,13.1,18.31,27.2
"2016-07-16 00:20:00",1812929,5.652,61.74,1.938,0.234,20.13,107.1165,17.49,18.54,70.8,0,110.9,13.1,18.31,23.7
"2016-07-16 00:20:30",1812930,6.338,67.55,2.429,0.252,20.08,107.1092,17.48,18.53,70.46,0,110.9,13.1,18.29,29.6
"2016-07-16 00:21:00",1812931,6.127,62.52,3.294,0.252,20.04,107.1005,17.45,18.54,70.03,0,110.9,13.11,18.27,24.5
"2016-07-16 00:21:30",1812932,6.327,63.2,2.423,0.254,20.05,107.0915,17.43,18.51,69.77,0,110.9,13.1,18.24,25.2
"2016-07-16 00:22:00",1812933,6.272,62.94,3.493,0.477,20.09,107.0901,17.43,18.52,69.65,0,110.9,13.11,18.24,24.9
"2016-07-16 00:22:30",1812934,6.885,59.13,1.594,0.19,20.11,107.0898,17.43,18.52,69.99,0,110.9,13.1,18.24,21.1
"2016-07-16 00:23:00",1812935,6.457,59.12,2.727,0.247,20.14,107.0898,17.43,18.51,70,0,110.9,13.1,18.24,21.1
"2016-07-16 00:23:30",1812936,6.86,56.28,3.012,0.344,20.01,107.0898,17.43,18.48,69.88,0,110.9,13.1,18.24,18.3
"2016-07-16 00:24:00",1812937,6.618,55.27,2.243,0.405,20.06,107.089,17.42,18.47,69.69,0,110.9,13.1,18.24,17.3
"2016-07-16 00:24:30",1812938,6.326,51.97,5.908,1.066,20.03,107.0743,17.39,18.47,69.85,0,110.9,13.1,18.20,14.0
"2016-07-16 00:25:00",1812939,5.266,51.64,2.711,0.224,20.05,107.0583,17.34,18.47,69.78,0,110.9,13.1,18.16,13.6
"2016-07-16 00:25:30",1812940,6.136,55.53,3.239,0.322,19.99,107.056,17.34,18.44,69.94,0,110.9,13.1,18.15,17.5
"2016-07-16 00:26:00",1812941,7.131,61.81,3.247,0.324,19.94,107.056,17.34,18.43,70.08,0,110.9,13.1,18.15,23.8
"2016-07-16 00:26:30",1812942,6.958,63.42,1.607,0.218,19.95,107.056,17.34,18.42,70.02,0,110.9,13.1,18.15,25.4
"2016-07-16 00:27:00",1812943,6.693,59.38,2.138,0.231,20,107.0456,17.31,18.41,70.09,0,110.9,13.1,18.12,21.4
"2016-07-16 00:27:30",1812944,6.717,60.42,3.101,0.366,19.99,107.0254,17.26,18.39,70.1,0,110.9,13.1,18.07,22.4
"2016-07-16 00:28:00",1812945,6.725,56.89,5.343,0.25,19.91,107.0229,17.25,18.37,70.56,0,110.9,13.1,18.07,18.9
"2016-07-16 00:28:30",1812946,6.732,61.37,6.628,0.29,19.83,107.0226,17.25,18.37,70.83,0,110.9,13.1,18.07,23.4
"2016-07-16 00:29:00",1812947,5.983,65.61,2.672,0.219,19.89,107.0238,17.26,18.36,70.78,0,110.9,13.1,18.07,27.6
"2016-07-16 00:29:30",1812948,6.242,66.41,1.835,0.167,19.79,107.0122,17.23,18.34,70.57,0,110.9,13.1,18.04,28.4
"2016-07-16 00:30:00",1812949,5.753,66.52,2.179,0.522,19.81,107.0004,17.2,18.32,70.45,0,110.9,13.11,18.01,28.5
"2016-07-16 00:30:30",1812950,5.783,71.71,2.896,0.391,19.75,106.99,17.17,18.29,70.52,0,110.9,13.11,17.98,33.7
"2016-07-16 00:31:00",1812951,6.176,74.2,3.751,0.444,19.72,106.9903,17.17,18.29,70.51,0,110.9,13.11,17.98,36.2
"2016-07-16 00:31:30",1812952,6.099,75.26,4.886,0.479,19.74,106.9891,17.17,18.27,70.61,0,110.9,13.11,17.98,37.3
"2016-07-16 00:32:00",1812953,5.708,79.52,2.875,0.211,19.87,106.9895,17.17,18.27,70.62,0,110.9,13.11,17.98,41.5
"2016-07-16 00:32:30",1812954,5.447,82.6,3.001,0.338,19.87,106.9731,17.13,18.25,70.71,0,110.9,13.11,17.94,44.6
"2016-07-16 00:33:00",1812955,5.137,71.35,5.13,0.194,19.84,106.9593,17.09,18.24,70.75,0,110.9,13.11,17.90,33.3
"2016-07-16 00:33:30",1812956,5.303,72.19,1.532,0.214,19.85,106.9578,17.09,18.22,70.55,0,110.9,13.11,17.90,34.2
"2016-07-16 00:34:00",1812957,5.439,74.39,2.003,0.257,19.81,106.9578,17.09,18.21,70.44,0,110.9,13.11,17.90,36.4
"2016-07-16 00:34:30",1812958,5.289,71,2.891,0.272,19.79,106.9581,17.09,18.19,70.52,0,110.9,13.11,17.90,33.0
"2016-07-16 00:35:00",1812959,4.659,74.82,4.674,0.242,19.83,106.9542,17.08,18.16,70.81,0,110.9,13.11,17.89,36.8
"2016-07-16 00:35:30",1812960,5.084,84.4,2.954,0.303,19.87,106.9404,17.04,18.16,70.74,0,110.9,13.11,17.85,46.4
"2016-07-16 00:36:00",1812961,5.172,84.2,2.674,0.163,19.78,106.9275,17.01,18.16,70.61,0,110.9,13.11,17.82,46.2
"2016-07-16 00:36:30",1812962,4.848,91.3,3.89,0.239,19.88,106.9279,17.01,18.13,70.56,0,110.9,13.11,17.82,53.3
"2016-07-16 00:37:00",1812963,5.133,90.4,1.88,0.182,19.89,106.9288,17.01,18.13,70.61,0,110.9,13.11,17.82,52.4
"2016-07-16 00:37:30",1812964,5.347,90.7,2.443,0.36,19.75,106.9294,17.01,18.13,70.73,0,110.9,13.11,17.83,52.7
"2016-07-16 00:38:00",1812965,5.561,88.3,3.751,0.331,19.76,106.9297,17.02,18.12,70.98,0,110.9,13.11,17.83,50.3
"2016-07-16 00:38:30",1812966,5.689,86.9,2.678,0.279,19.73,106.9291,17.01,18.09,71.1,0,110.9,13.11,17.82,48.9
"2016-07-16 00:39:00",1812967,5.843,92,2.122,0.406,19.79,106.9306,17.02,18.11,71.18,0,110.9,13.11,17.83,54.0
"2016-07-16 00:39:30",1812968,6.34,86.4,4.499,0.492,19.71,106.9275,17.01,18.09,71.16,0,110.9,13.11,17.82,48.4
"2016-07-16 00:40:00",1812969,5.806,88.7,1.462,0.328,19.81,106.9212,16.99,18.07,70.98,0,110.9,13.11,17.80,50.7
"2016-07-16 00:40:30",1812970,5.209,87.2,1.593,0.223,19.83,106.9148,16.98,18.06,70.83,0,110.9,13.1,17.79,49.2
"2016-07-16 00:41:00",1812971,4.837,90.8,1.562,0.22,19.85,106.9041,16.95,18.05,70.76,0,110.9,13.1,17.76,52.8
"2016-07-16 00:41:30",1812972,4.859,90.9,2.319,0.197,19.87,106.8981,16.93,18.05,70.75,0,110.9,13.1,17.75,52.9
"2016-07-16 00:42:00",1812973,4.916,92.6,3.817,0.154,19.85,106.9023,16.94,18.03,70.72,0,110.9,13.1,17.76,54.6
"2016-07-16 00:42:30",1812974,4.846,95.2,2.887,0.15,19.98,106.9005,16.94,18.04,70.77,0,110.9,13.1,17.75,57.2
"2016-07-16 00:43:00",1812975,4.719,94.9,2.795,0.211,19.97,106.8993,16.94,18.03,70.78,0,110.9,13.1,17.75,56.9
"2016-07-16 00:43:30",1812976,4.967,94.7,4.104,0.362,19.95,106.8996,16.94,18.02,70.84,0,110.9,13.1,17.75,56.7
"2016-07-16 00:44:00",1812977,4.967,100.2,5.327,0.298,20.1,106.8999,16.94,18.04,70.88,0,110.9,13.1,17.75,62.2
"2016-07-16 00:44:30",1812978,4.759,103.7,4.606,0.295,20.12,106.9008,16.94,18.02,70.88,0,110.9,13.1,17.75,65.7
"2016-07-16 00:45:00",1812979,4.702,96.9,4.641,0.224,20.17,106.9014,16.94,18.01,70.94,0,110.9,13.1,17.75,58.9
"2016-07-16 00:45:30",1812980,4.896,94.5,5.348,0.27,20.02,106.9029,16.95,18.01,70.99,0,110.9,13.1,17.76,56.5
"2016-07-16 00:46:00",1812981,5.366,97.5,3.566,0.348,19.94,106.9017,16.94,18.02,71.08,0,110.9,13.1,17.75,59.5
"2016-07-16 00:46:30",1812982,5.803,94.6,1.987,0.169,19.87,106.9038,16.95,18,71.2,0,110.9,13.11,17.76,56.6
"2016-07-16 00:47:00",1812983,6.023,98.4,1.756,0.19,19.98,106.902,16.94,18.01,71.15,0,110.9,13.11,17.76,60.4
"2016-07-16 00:47:30",1812984,5.231,100.1,3.247,0.157,20.02,106.9029,16.95,18.01,71.04,0,110.9,13.11,17.76,62.1
"2016-07-16 00:48:00",1812985,5.566,92.5,2.576,0.252,19.84,106.9041,16.95,18,71.08,0,110.9,13.11,17.76,54.5
"2016-07-16 00:48:30",1812986,5.443,93.9,2.24,0.282,19.84,106.9062,16.95,17.99,71.18,0,110.9,13.11,17.77,55.9
"2016-07-16 00:49:00",1812987,5.372,97.4,3.88,0.33,19.82,106.9008,16.94,17.98,71.13,0,110.9,13.11,17.75,59.4
"2016-07-16 00:49:30",1812988,5.233,102.8,1.66,0.142,19.93,106.8977,16.93,17.98,70.88,0,110.9,13.11,17.74,64.8
"2016-07-16 00:50:00",1812989,5.414,102,4.482,0.236,19.96,106.8876,16.91,17.97,70.77,0,110.9,13.11,17.72,64.0
"2016-07-16 00:50:30",1812990,5.316,99.3,3.487,0.189,19.92,106.8873,16.91,17.97,71.03,0,110.9,13.11,17.72,61.3
"2016-07-16 00:51:00",1812991,4.971,102.1,6.611,0.27,19.93,106.8854,16.9,17.97,71.22,0,110.9,13.11,17.71,64.1
"2016-07-16 00:51:30",1812992,4.268,102.3,5.214,0.377,19.92,106.8847,16.9,17.95,71.16,0,110.9,13.11,17.71,64.3
"2016-07-16 00:52:00",1812993,4.925,103,5.419,0.256,19.88,106.8844,16.9,17.96,71.16,0,110.9,13.11,17.71,65.0
"2016-07-16 00:52:30",1812994,4.131,101.8,4.105,0.317,19.86,106.8856,16.9,17.96,71.03,0,110.9,13.11,17.71,63.8
"2016-07-16 00:53:00",1812995,4.325,110,2.64,0.273,19.91,106.8893,16.91,17.96,71.07,0,110.9,13.11,17.72,72.0
"2016-07-16 00:53:30",1812996,3.935,114.9,4.656,0.141,19.94,106.8933,16.92,17.95,71.04,0,110.9,13.11,17.73,76.9
"2016-07-16 00:54:00",1812997,4.195,113.9,2.823,0.246,19.89,106.8976,16.93,17.95,70.77,0,110.9,13.11,17.74,75.9
"2016-07-16 00:54:30",1812998,4.835,108.7,2.272,0.155,19.88,106.8997,16.94,17.95,70.65,0,110.9,13.11,17.75,70.7
"2016-07-16 00:55:00",1812999,4.862,114.5,3.735,0.218,19.92,106.9114,16.97,17.95,70.54,0,110.9,13.11,17.78,76.5
"2016-07-16 00:55:30",1813000,4.543,113.8,4.008,0.323,19.94,106.9138,16.97,17.96,70.42,0,110.9,13.11,17.79,75.8
"2016-07-16 00:56:00",1813001,4.417,117.6,3.042,0.257,19.99,106.9176,16.98,17.97,70.33,0,110.9,13.11,17.80,79.6
"2016-07-16 00:56:30",1813002,4.972,111.9,4.218,0.457,20.02,106.9194,16.99,17.98,70.28,0,110.9,13.11,17.80,73.9
"2016-07-16 00:57:00",1813003,4.971,120.1,2.338,0.211,20.04,106.9206,16.99,17.98,70.28,0,110.9,13.11,17.80,82.1
"2016-07-16 00:57:30",1813004,4.914,121.9,1.695,0.201,20.03,106.9209,16.99,17.99,70.26,0,110.9,13.11,17.80,83.9
"2016-07-16 00:58:00",1813005,4.596,117.5,5.242,0.149,20.19,106.9212,16.99,17.99,70.23,0,110.9,13.11,17.80,79.5
"2016-07-16 00:58:30",1813006,4.119,122.3,3.788,0.255,20.16,106.9197,16.99,18.01,70.29,0,110.9,13.11,17.80,84.3
"2016-07-16 00:59:00",1813007,4.17,124.5,2.972,0.176,20.13,106.9197,16.99,18.01,70.2,0,110.9,13.1,17.80,86.5
"2016-07-16 00:59:30",1813008,4.041,126,2.442,0.4,20.07,106.9227,17,18.01,70.14,0,110.9,13.1,17.81,88.0
"2016-07-16 01:00:00",1813009,3.697,126.8,3.866,0.404,20,106.9356,17.03,18.02,70.13,0,110.9,13.1,17.84,88.8
"2016-07-16 01:00:30",1813010,3.751,120.7,2.612,0.202,19.96,106.9465,17.06,18.02,70.1,0,110.9,13.1,17.87,82.7
"2016-07-16 01:01:00",1813011,3.187,123,2.883,0.21,19.97,106.9545,17.08,18.03,70.1,0,110.9,13.1,17.89,85.0
"2016-07-16 01:01:30",1813012,3.473,125,3.019,0.19,19.98,106.9559,17.08,18.04,70.13,0,110.9,13.1,17.89,87.0
"2016-07-16 01:02:00",1813013,4.081,123.5,7.365,0.205,20.17,106.955,17.08,18.04,70.06,0,110.9,13.1,17.89,85.5
"2016-07-16 01:02:30",1813014,3.572,112.4,5.038,0.383,20.27,106.9544,17.08,18.06,70.01,0,110.9,13.1,17.89,74.4
"2016-07-16 01:03:00",1813015,3.242,108.7,5.607,0.21,20.28,106.9565,17.08,18.07,69.94,0,110.9,13.11,17.90,70.7
"2016-07-16 01:03:30",1813016,3.55,107.9,4.267,0.217,20.32,106.9568,17.08,18.08,69.91,0,110.9,13.11,17.90,69.9
"2016-07-16 01:04:00",1813017,3.747,107.4,2.034,0.214,20.32,106.9571,17.09,18.07,69.8,0,110.9,13.11,17.90,69.4
"2016-07-16 01:04:30",1813018,4.056,106.3,3.995,0.179,20.46,106.9568,17.08,18.08,69.72,0,110.9,13.11,17.90,68.3
"2016-07-16 01:05:00",1813019,3.679,118.1,4.332,0.205,20.52,106.9571,17.09,18.1,69.67,0,110.9,13.11,17.90,80.1
"2016-07-16 01:05:30",1813020,3.408,117.7,3.434,0.301,20.44,106.9571,17.09,18.11,69.71,0,110.9,13.11,17.90,79.7
"2016-07-16 01:06:00",1813021,3.055,114.8,3.954,0.212,20.4,106.9571,17.09,18.1,69.83,0,110.9,13.11,17.90,76.8
"2016-07-16 01:06:30",1813022,3.165,124,3.325,0.252,20.44,106.9571,17.09,18.11,69.8,0,110.9,13.11,17.90,86.0
"2016-07-16 01:07:00",1813023,3.685,123.5,3.652,0.251,20.42,106.9571,17.09,18.1,69.66,0,110.9,13.11,17.90,85.5
"2016-07-16 01:07:30",1813024,3.575,125.3,2.682,0.191,20.41,106.9571,17.09,18.11,69.6,0,110.9,13.11,17.90,87.3
"2016-07-16 01:08:00",1813025,3.74,119.8,5.078,0.262,20.3,106.9571,17.09,18.11,69.59,0,110.9,13.11,17.90,81.8
"2016-07-16 01:08:30",1813026,3.451,117.4,3.556,0.202,20.36,106.9571,17.09,18.1,69.61,0,110.8,13.11,17.90,79.4
"2016-07-16 01:09:00",1813027,3.526,117.1,3.246,0.203,20.18,106.9571,17.09,18.09,69.57,0,110.8,13.11,17.90,79.1
"2016-07-16 01:09:30",1813028,3.697,116,5.138,0.202,20.17,106.9571,17.09,18.1,69.53,0,110.8,13.11,17.90,78.0
"2016-07-16 01:10:00",1813029,3.802,127.6,6.601,0.319,20.33,106.9571,17.09,18.09,69.65,0,110.8,13.11,17.90,89.6
"2016-07-16 01:10:30",1813030,2.714,125.1,5.185,0.446,20.24,106.9571,17.09,18.09,69.75,0,110.8,13.11,17.90,87.1
"2016-07-16 01:11:00",1813031,2.673,116,6.784,0.194,20.11,106.9571,17.09,18.1,69.68,0,110.8,13.11,17.90,78.0
"2016-07-16 01:11:30",1813032,2.847,127.3,3.133,0.263,20.15,106.9571,17.09,18.09,69.6,0,110.8,13.11,17.90,89.3
"2016-07-16 01:12:00",1813033,3.006,129.8,3.25,0.152,20.13,106.9571,17.09,18.09,69.56,0,110.8,13.11,17.90,91.8
"2016-07-16 01:12:30",1813034,2.983,132.8,2.073,0.091,20.19,106.9571,17.09,18.1,69.53,0,110.8,13.11,17.90,94.8
"2016-07-16 01:13:00",1813035,2.959,132.7,1.828,0.146,20.19,106.9571,17.09,18.1,69.53,0,110.8,13.11,17.90,94.7
"2016-07-16 01:13:30",1813036,3.218,132.6,2.096,0.132,20.18,106.9571,17.09,18.12,69.5,0,110.8,13.11,17.90,94.6
"2016-07-16 01:14:00",1813037,3.306,134.1,3.257,0.151,20.21,106.9571,17.09,18.11,69.44,0,110.8,13.11,17.90,96.1
"2016-07-16 01:14:30",1813038,3.778,133.2,2.553,0.211,20.16,106.958,17.09,18.13,69.4,0,110.8,13.11,17.90,95.2
"2016-07-16 01:15:00",1813039,3.325,130.6,1.787,0.137,20.07,106.9726,17.12,18.13,69.28,0,110.8,13.11,17.94,92.6
"2016-07-16 01:15:30",1813040,3.169,140.5,4.852,0.177,20.28,106.9827,17.15,18.15,69.24,0,110.8,13.11,17.96,102.5
"2016-07-16 01:16:00",1813041,3.126,145,3.61,0.175,20.36,106.9878,17.16,18.15,69.35,0,110.8,13.11,17.98,107.0
"2016-07-16 01:16:30",1813042,3.386,146.5,3.44,0.123,20.36,106.9909,17.17,18.15,69.37,0,110.8,13.1,17.98,108.5
"2016-07-16 01:17:00",1813043,3.536,149,2.275,0.183,20.38,106.9909,17.17,18.17,69.31,0,110.8,13.11,17.98,111.0
"2016-07-16 01:17:30",1813044,3.758,142.6,3.812,0.226,20.34,106.9909,17.17,18.18,69.28,0,110.8,13.11,17.98,104.6
"2016-07-16 01:18:00",1813045,3.733,140.6,1.959,0.129,20.34,106.9909,17.17,18.19,69.18,0,110.8,13.11,17.98,102.6
"2016-07-16 01:18:30",1813046,3.625,143,5.593,0.137,20.36,106.992,17.17,18.19,69.09,0,110.8,13.11,17.99,105.0
"2016-07-16 01:19:00",1813047,3.713,144.8,3.189,0.216,20.37,107.0035,17.2,18.2,69.06,0,110.8,13.11,18.02,106.8
"2016-07-16 01:19:30",1813048,3.689,149.9,2.672,0.162,20.43,107.0165,17.24,18.21,69.09,0,110.8,13.11,18.05,111.9
"2016-07-16 01:20:00",1813049,4.13,148.6,3.258,0.144,20.38,107.0241,17.26,18.24,69.08,0,110.8,13.11,18.07,110.6
"2016-07-16 01:20:30",1813050,3.67,140.4,6.004,0.417,20.35,107.0247,17.26,18.24,68.98,0,110.8,13.11,18.07,102.4
"2016-07-16 01:21:00",1813051,3.387,146.1,4.721,0.352,20.31,107.0247,17.26,18.24,68.86,0,110.8,13.11,18.07,108.1
"2016-07-16 01:21:30",1813052,3.914,150.5,1.889,0.112,20.42,107.0247,17.26,18.25,68.82,0,110.8,13.11,18.07,112.5
"2016-07-16 01:22:00",1813053,3.633,152.1,5.797,0.177,20.48,107.0247,17.26,18.27,68.81,0,110.8,13.11,18.07,114.1
"2016-07-16 01:22:30",1813054,3.671,145.1,5.619,0.168,20.43,107.0247,17.26,18.26,68.87,0,110.8,13.11,18.07,107.1
"2016-07-16 01:23:00",1813055,3.986,149.9,3.038,0.132,20.35,107.0275,17.27,18.29,68.82,0,110.8,13.11,18.08,111.9
"2016-07-16 01:23:30",1813056,3.802,148.8,3.178,0.109,20.47,107.0322,17.28,18.28,68.72,0,110.8,13.11,18.09,110.8
"2016-07-16 01:24:00",1813057,3.997,146.3,2.663,0.221,20.46,107.0373,17.29,18.29,68.73,0,110.8,13.11,18.10,108.3
"2016-07-16 01:24:30",1813058,3.991,149.1,2.06,0.221,20.47,107.0379,17.29,18.3,68.73,0,110.8,13.11,18.10,111.1
"2016-07-16 01:25:00",1813059,3.961,150.2,2.886,0.334,20.46,107.0398,17.3,18.31,68.62,0,110.8,13.11,18.11,112.2
"2016-07-16 01:25:30",1813060,4.012,150.3,4.682,0.201,20.43,107.0432,17.31,18.31,68.56,0,110.8,13.11,18.12,112.3
"2016-07-16 01:26:00",1813061,3.72,152.8,2.852,0.204,20.44,107.0458,17.31,18.32,68.46,0,110.8,13.11,18.13,114.8
"2016-07-16 01:26:30",1813062,3.914,150.6,4.492,0.243,20.4,107.0472,17.32,18.32,68.38,0,110.8,13.11,18.13,112.6
"2016-07-16 01:27:00",1813063,4.011,144.9,1.342,0.142,20.36,107.0497,17.32,18.33,68.28,0,110.8,13.11,18.14,106.9
"2016-07-16 01:27:30",1813064,3.885,147.7,3.693,0.292,20.39,107.0514,17.33,18.31,68.25,0,110.8,13.11,18.14,109.7
"2016-07-16 01:28:00",1813065,4.189,152.3,2.522,0.188,20.48,107.0489,17.32,18.34,68.24,0,110.8,13.11,18.13,114.3
"2016-07-16 01:28:30",1813066,4.148,155.1,2.461,0.21,20.38,107.046,17.31,18.31,68.3,0,110.8,13.11,18.13,117.1
"2016-07-16 01:29:00",1813067,4.67,153.1,2.889,0.139,20.42,107.0449,17.31,18.33,68.37,0,110.8,13.11,18.12,115.1
"2016-07-16 01:29:30",1813068,4.335,154,4.019,0.105,20.43,107.0429,17.31,18.33,68.4,0,110.8,13.11,18.12,116.0
"2016-07-16 01:30:00",1813069,4.791,153.2,4.672,0.286,20.44,107.0438,17.31,18.34,68.58,0,110.8,13.11,18.12,115.2
"2016-07-16 01:30:30",1813070,4.333,146.3,4.735,0.367,20.5,107.0368,17.29,18.34,68.45,0,110.8,13.11,18.10,108.3
"2016-07-16 01:31:00",1813071,4.214,158.1,1.512,0.113,20.53,107.0365,17.29,18.33,68.57,0,110.8,13.11,18.10,120.1
"2016-07-16 01:31:30",1813072,4.118,160.1,2.852,0.119,20.56,107.032,17.28,18.34,68.75,0,110.8,13.11,18.09,122.1
"2016-07-16 01:32:00",1813073,4.013,165.8,2.294,0.137,20.6,107.0263,17.26,18.32,69.08,0,110.8,13.11,18.07,127.8
"2016-07-16 01:32:30",1813074,4.32,164.9,1.645,0.126,20.45,107.0252,17.26,18.33,69.18,0,110.8,13.11,18.07,126.9
"2016-07-16 01:33:00",1813075,4.234,163.3,3.339,0.114,20.51,107.0247,17.26,18.33,69.19,0,110.8,13.11,18.07,125.3
"2016-07-16 01:33:30",1813076,3.969,160.5,2.318,0.198,20.44,107.0247,17.26,18.32,69.06,0,110.8,13.11,18.07,122.5
"2016-07-16 01:34:00",1813077,3.921,163.6,1.635,0.122,20.47,107.0247,17.26,18.32,69.19,0,110.8,13.11,18.07,125.6
"2016-07-16 01:34:30",1813078,3.856,167.2,2.198,0.136,20.46,107.0247,17.26,18.3,69.21,0,110.8,13.11,18.07,129.2
"2016-07-16 01:35:00",1813079,4.239,178.8,2.804,0.13,20.6,107.0232,17.25,18.31,69.31,0,110.8,13.11,18.07,140.8
"2016-07-16 01:35:30",1813080,4.12,177.7,2.91,0.158,20.59,107.021,17.25,18.29,69.57,0,110.8,13.11,18.06,139.7
"2016-07-16 01:36:00",1813081,4.324,178.6,1.84,0.168,20.6,107.0134,17.23,18.28,69.59,0,110.8,13.11,18.04,140.6
"2016-07-16 01:36:30",1813082,4.527,180.9,0.64,0.072,20.66,107.0086,17.22,18.28,69.69,0,110.8,13.11,18.03,142.9
"2016-07-16 01:37:00",1813083,4.421,181.6,0.654,0.077,20.68,107.0041,17.21,18.28,69.78,0,110.8,13.11,18.02,143.6
"2016-07-16 01:37:30",1813084,4.574,179.8,1.009,0.062,20.82,106.9993,17.19,18.26,69.85,0,110.8,13.11,18.01,141.8
"2016-07-16 01:38:00",1813085,4.616,178.4,0.537,0.039,20.88,106.9985,17.19,18.26,69.88,0,110.8,13.11,18.00,140.4
"2016-07-16 01:38:30",1813086,4.499,177.9,0.864,0.083,20.9,106.9951,17.18,18.27,69.88,0,110.8,13.11,17.99,139.9
"2016-07-16 01:39:00",1813087,4.437,179.3,1.063,0.126,20.98,106.994,17.18,18.25,69.89,0,110.8,13.11,17.99,141.3
"2016-07-16 01:39:30",1813088,4.353,178.8,0.942,0.074,20.98,106.9931,17.18,18.25,69.89,0,110.8,13.12,17.99,140.8
"2016-07-16 01:40:00",1813089,4.335,182.1,1.741,0.109,21.03,106.9923,17.18,18.24,69.85,0,110.8,13.11,17.99,144.1
"2016-07-16 01:40:30",1813090,4.12,183.9,1.768,0.138,21.07,106.9934,17.18,18.25,69.74,0,110.8,13.11,17.99,145.9
"2016-07-16 01:41:00",1813091,4.122,181.2,0.556,0.066,20.96,106.9931,17.18,18.25,69.7,0,110.8,13.12,17.99,143.2
"2016-07-16 01:41:30",1813092,3.992,184.1,2.614,0.113,20.95,106.9948,17.18,18.24,69.78,0,110.8,13.12,17.99,146.1
"2016-07-16 01:42:00",1813093,4.39,182.3,1.523,0.171,20.9,107.0002,17.2,18.24,69.78,0,110.8,13.12,18.01,144.3
"2016-07-16 01:42:30",1813094,4.33,181.5,2.352,0.114,20.89,107.001,17.2,18.25,69.81,0,110.8,13.12,18.01,143.5
"2016-07-16 01:43:00",1813095,4.273,184.6,0.591,0.09,20.96,107.0055,17.21,18.25,69.78,0,110.8,13.12,18.02,146.6
"2016-07-16 01:43:30",1813096,4.193,186.6,1.409,0.072,20.95,107.0083,17.22,18.24,69.72,0,110.8,13.12,18.03,148.6
"2016-07-16 01:44:00",1813097,4.184,187.6,0.486,0.037,20.92,107.0131,17.23,18.25,69.74,0,110.8,13.12,18.04,149.6
"2016-07-16 01:44:30",1813098,4.28,187.1,0.481,0.045,21.02,107.0173,17.24,18.25,69.64,0,110.8,13.12,18.05,149.1
"2016-07-16 01:45:00",1813099,4.225,185.9,0.548,0.063,21.08,107.023,17.25,18.25,69.42,0,110.8,13.12,18.07,147.9
"2016-07-16 01:45:30",1813100,4.138,185.6,0.525,0.094,21.06,107.0247,17.26,18.26,69.23,0,110.8,13.12,18.07,147.6
"2016-07-16 01:46:00",1813101,4.017,184.8,1.015,0.07,21.06,107.0247,17.26,18.26,69.23,0,110.8,13.12,18.07,146.8
"2016-07-16 01:46:30",1813102,4.11,182.1,0.726,0.09,21.01,107.0247,17.26,18.25,68.97,0,110.8,13.12,18.07,144.1
"2016-07-16 01:47:00",1813103,3.968,181.2,1.18,0.079,21.03,107.0247,17.26,18.26,68.69,0,110.8,13.12,18.07,143.2
"2016-07-16 01:47:30",1813104,3.958,179.6,1.09,0.063,20.99,107.0247,17.26,18.26,68.42,0,110.8,13.12,18.07,141.6